Flag for Switzerland Weather past 2 weeks in Meilen, Zurich, Switzerland

Now
64 °F

Mild.


Feels Like: 64 °F
Forecast: 59 / 75 °F
Wind: 2 mph from Southwest

Location: Zurich Town / Ville.

Current Time: Jul 22, 2014 at 8:18:20 PM

Latest Report: Jul 22, 2014 at 6:00 PM


Visibility: N/A

Pressure: 29.95 "Hg

Humidity: 98%

Dew point: 63 °F

Location of MeilenLocation

Historic Weather in Meilen — Graph

°F

Meilen temperature yesterday

Maximum temperature yesterday: 66 °F (at 2:00 PM)
Minimum temperature yesterday: 58 °F (at 2:00 AM)
Average temperature yesterday: 61 °F

Past Weeks' High & Low Weather Summary

 TemperatureHumidityPressure
High87 °F (Jul 19, 6:00 PM)98% (Jul 11, 12:00 AM)30.19 "Hg (Jul 11, 12:00 AM)
Low49 °F (Jul 10, 2:00 AM)25% (Jul 18, 3:00 PM)29.78 "Hg (Jul 20, 3:00 AM)
Average64 °F78%29.97 "Hg
* Reported Jul 7 6:00 PM — Jul 22 6:00 PM, Meilen, Weather by CustomWeather, © 2014

Note: Actual official high and low records may vary slightly from our data, if they occured in-between our weather recording intervals... More about our weather records

Advertising

Meilen weather history for previous 24 hours

 ConditionsComfort  
Time TempWeatherWind HumidityBarometerVisibility
6:00 PM
Jul 22
64 °FMild.2 mph98%29.95 "HgN/A
5:00 PM62 °FMild.3 mph98%29.95 "HgN/A
4:00 PM62 °FMild.2 mph96%29.94 "HgN/A
3:00 PM62 °FCool.5 mph97%29.94 "HgN/A
2:00 PM62 °FOvercast.6 mph97%29.94 "HgN/A
1:00 PM62 °FCool.5 mph97%29.94 "HgN/A
12:00 PM62 °FCool.5 mph98%29.93 "HgN/A
11:00 AM62 °FCool.7 mph98%29.92 "HgN/A
10:00 AM62 °FCool.8 mph96%29.91 "HgN/A
9:00 AM61 °FCool.5 mph96%29.90 "HgN/A
8:00 AM61 °FOvercast.8 mph97%29.90 "HgN/A
7:00 AM61 °FCool.6 mph98%29.90 "HgN/A
6:00 AM61 °FCool.3 mph97%29.90 "HgN/A
5:00 AM61 °FCool.3 mph98%29.91 "HgN/A
4:00 AM61 °FCool.2 mph97%29.90 "HgN/A
3:00 AM60 °FCool.2 mph97%29.91 "HgN/A
2:00 AM60 °FCool.2 mph97%29.93 "HgN/A
1:00 AM60 °FCool.5 mph97%29.94 "HgN/A
12:00 AM60 °FCool.3 mph96%29.94 "HgN/A
11:00 PM
Jul 21
60 °FCool.2 mph97%29.95 "HgN/A
10:00 PM60 °FCool.3 mph97%29.95 "HgN/A
9:00 PM61 °FCool.3 mph94%29.94 "HgN/A
8:00 PM60 °FOvercast.5 mph97%29.94 "HgN/A
Weather by CustomWeather, © 2014

See weather overviewHow to use our weather pages